User: anonymous   Login
Location: ??
(36.7391°N, 127.5151°E)
Time: 13:28:43
(UTC+00:00)
Language:

STARLINK-1369 - Orbit

View from above orbital plane
View from above orbital plane
View from above satellite
View from above satellite

Ground track
Ground track

The orbit data is extracted from the following two-line orbital elements,

1 45541U 20025L   20218.91667824 +.00001472 +00000-0 +12014-3 0  9999
2 45541 052.9990 272.4974 0000807 121.6000 352.6099 15.05581131001752
Epoch (UTC): 05 August 2020 22:00:01
Eccentricity: 0.0000807
inclination: 52.9990°
perigee height: 549 km
apogee height: 550 km
right ascension of ascending node: 272.4974°
argument of perigee: 121.6000°
revolutions per day: 15.05581131
mean anomaly at epoch: 352.6099°
orbit number at epoch: 175

The dashed part of the orbit path shows where the satellite is in the earth's shadow,  

DLR